Tracking 26321 objects as of 27-Nov-2022
HD Live streaming from Space Station
objects crossing your sky now

STARLINK-4655

Track STARLINK-4655 now!
10-day predictions
STARLINK-4655 is classified as:


NORAD ID: 53613
Int'l Code: 2022-104AB
Perigee: 545.7 km
Apogee: 548.0 km
Inclination: 53.2 °
Period: 95.4 minutes
Semi major axis: 6917 km
RCS: Unknown
Launch date: August 28, 2022
Source: United States (US)
Launch site: AIR FORCE EASTERN TEST RANGE (AFETR)
aabbcc
Your satellite tracking list
Your tracking list is empty




NASA's NSSDC Master Catalog

Two Line Element Set (TLE):
1 53613U 22104AB  22331.25001157 -.00047444  00000-0 -29818-2 0  9994
2 53613  53.2137 214.2666 0001689  53.1051 146.5884 15.08849332 14135
Source of the keplerian elements: AFSPC